Weather reports worldwide

Advertisment
Magdeburg, Germany (10361): temperature & dewpoint: 10.08.2018 13:00:00 - 16.08.2018 13:00:00 (CEST)Magdeburg, Germany (10361): temperature 5cm & temperature -5cm: 10.08.2018 13:00:00 - 16.08.2018 13:00:00 (CEST)Magdeburg, Germany (10361): temperature -20cm & temperature -100cm: 10.08.2018 13:00:00 - 16.08.2018 13:00:00 (CEST)Magdeburg, Germany (10361): wind speed & gusts: 10.08.2018 13:00:00 - 16.08.2018 13:00:00 (CEST)Magdeburg, Germany (10361): wind direction: 10.08.2018 13:00:00 - 16.08.2018 13:00:00 (CEST)Magdeburg, Germany (10361): reduced air pressure: 10.08.2018 13:00:00 - 16.08.2018 13:00:00 (CEST)Magdeburg, Germany (10361): visibility: 10.08.2018 13:00:00 - 16.08.2018 13:00:00 (CEST)Magdeburg, Germany (10361): sunshine duration: 10.08.2018 13:00:00 - 16.08.2018 13:00:00 (CEST)Magdeburg, Germany (10361): precipitation: 10.08.2018 13:00:00 - 16.08.2018 13:00:00 (CEST)
Date & Time tt [°C] td [°C] tt 5cm [°C] tt -5cm [°C] tt -20cm [°C] tt -100cm [°C] ff [km/h] ff [kn] fx [km/h] fx [kn] dd ppp [hPa] vv [km] sd [min] rr [mm]
16.08.2018 13:00:00 27,0 11,2 31,8 32,2 21,2 19,6 11 6 26 14 SSE 1016,5 42 60 0,0
16.08.2018 12:00:00 25,7 11,4 29,3 29,7 20,5 19,7 11 6 25 14 SSW 1017,3 25 60 0,0
16.08.2018 11:00:00 24,3 12,4 27,7 26,6 20,1 19,7 9 5 22 12 SSE 1017,9 36 60 0,0
16.08.2018 10:00:00 22,5 13,3 24,7 23,1 19,9 19,7 6 4 12 6 SSE 1018,3 25 60 0,0
16.08.2018 09:00:00 20,0 13,2 21,8 19,4 19,9 19,7 4 2 8 5 SE 1018,6 19 60 0,0
16.08.2018 08:00:00 16,9 12,5 16,4 16,1 20,1 19,7 4 2 7 4 SSE 1019,1 17 60 0,0
16.08.2018 07:00:00 14,0 11,8 11,6 15,4 20,4 19,7 4 2 6 4 SE 1019,3 13 3 0,0
16.08.2018 06:00:00 13,5 11,7 10,1 15,5 20,7 19,7 4 2 6 3 SSE 1019,2 13 0 0,0
16.08.2018 05:00:00 13,5 11,8 10,2 15,9 21,0 19,7 4 2 7 4 S 1019,4 12 0 0,0
16.08.2018 04:00:00 14,0 11,9 10,5 16,4 21,3 19,7 5 3 8 5 SSW 1019,3 16 0 0,0
16.08.2018 03:00:00 15,0 12,3 11,1 16,9 21,7 19,7 6 3 8 4 SW 1019,6 20 0 0,0
16.08.2018 02:00:00 15,2 12,4 11,6 17,6 22,0 19,7 5 3 8 4 S 1019,6 22 0 0,0
16.08.2018 01:00:00 15,2 12,8 12,2 18,3 22,4 19,7 3 1 4 2 SSW 1019,6 31 0 0,0
16.08.2018 00:00:00 16,1 13,0 12,9 19,0 22,7 19,7 2 1 5 3 SSW 1019,6 36 0 0,0
15.08.2018 23:00:00 16,6 13,0 13,5 19,8 23,1 19,7 3 1 5 3 WSW 1019,5 46 0 0,0
15.08.2018 22:00:00 17,7 13,1 14,2 20,9 23,3 19,7 3 2 5 3 W 1019,5 60 0 0,0
15.08.2018 21:00:00 19,6 12,9 15,8 22,5 23,5 19,8 3 2 8 5 WSW 1019,2 70 7 0,0
15.08.2018 20:00:00 22,4 12,2 21,5 24,7 23,6 19,8 3 2 13 7 WNW 1018,9 70 47 0,0
15.08.2018 19:00:00 23,0 12,4 22,7 26,1 23,6 19,8 7 4 15 8 W 1018,8 56 0 0,0
15.08.2018 18:00:00 22,7 12,6 22,9 26,6 23,5 19,8 6 3 20 11 NNW 1018,9 61 0 0,0
15.08.2018 17:00:00 22,9 12,3 23,5 28,5 23,2 19,8 8 5 21 12 NNW 1019,0 59 11 0,0
15.08.2018 16:00:00 24,8 11,5 28,8 30,6 22,6 19,8 10 5 23 12 W 1018,5 44 37 0,0
15.08.2018 15:00:00 24,9 11,0 29,6 31,8 21,9 19,8 12 6 29 16 W 1018,6 33 49 0,0
15.08.2018 14:00:00 23,3 11,0 27,8 31,5 21,1 19,8 11 6 27 14 WSW 1018,8 30 53 0,0
15.08.2018 13:00:00 22,8 12,0 27,5 30,3 20,5 19,8 11 6 29 16 W 1018,9 32 46 0,0
15.08.2018 12:00:00 22,3 12,0 26,5 26,3 20,1 19,8 15 8 25 13 W 1019,0 29 30 0,0
15.08.2018 11:00:00 20,6 13,5 22,2 23,7 19,8 19,8 10 5 24 13 W 1019,2 48 2 0,0
15.08.2018 10:00:00 20,3 13,5 21,9 22,8 19,6 19,8 10 5 20 11 W 1018,8 68 49 0,0
15.08.2018 09:00:00 18,3 13,2 20,5 18,5 19,6 19,8 9 5 17 9 SW 1018,4 48 13 0,0
15.08.2018 08:00:00 16,7 12,9 16,8 17,0 19,7 19,8 5 3 11 6 SW 1018,1 41 33 0,0
15.08.2018 07:00:00 14,6 12,3 13,2 15,2 20,0 19,8 5 3 10 5 SSW 1017,7 31 3 0,0
15.08.2018 06:00:00 13,4 11,7 10,4 14,9 20,3 19,8 4 2 10 5 S 1017,3 29 0 0,0
15.08.2018 05:00:00 13,6 12,0 10,4 15,3 20,5 19,8 4 2 8 4 WSW 1017,1 41 0 0,0
15.08.2018 04:00:00 14,5 11,9 11,5 15,8 20,8 19,9 3 2 11 6 WNW 1016,9 52 0 0,0
15.08.2018 03:00:00 15,5 12,0 13,4 16,4 21,1 19,9 5 3 14 7 WNW 1016,7 70 0 0,0
15.08.2018 02:00:00 16,0 12,3 13,4 17,0 21,4 19,9 4 2 11 6 WNW 1016,4 70 0 0,0
15.08.2018 01:00:00 15,8 12,4 13,4 17,6 21,7 19,9 4 2 12 6 WSW 1016,3 70 0 0,0
15.08.2018 00:00:00 17,7 12,6 15,7 18,3 21,9 19,9 6 3 23 12 WNW 1015,7 70 0 0,0
14.08.2018 23:00:00 19,0 12,9 17,0 19,0 22,2 19,9 14 8 25 14 W 1014,8 70 0 0,0
14.08.2018 22:00:00 18,4 14,9 16,5 20,0 22,4 19,9 8 4 20 11 W 1014,4 57 0 0,0
14.08.2018 21:00:00 19,3 15,3 18,5 21,3 22,5 19,9 11 6 25 14 W 1013,9 70 0 0,0
14.08.2018 20:00:00 19,3 15,2 18,9 22,1 22,6 19,9 13 7 37 20 W 1013,4 57 0 0,0
14.08.2018 19:00:00 19,5 15,3 19,0 24,0 22,6 19,9 19 10 45 24 W 1012,9 41 9 0,0
14.08.2018 18:00:00 19,9 14,9 19,0 24,8 22,4 19,9 21 11 49 27 W 1012,6 61 6 0,0
14.08.2018 17:00:00 22,2 15,6 23,1 26,9 22,2 19,9 18 10 38 21 W 1011,6 59 35 0,1
14.08.2018 16:00:00 21,4 15,4 21,5 26,1 21,8 19,9 20 11 41 22 W 1011,5 61 9 0,0
14.08.2018 15:00:00 22,1 14,2 23,1 26,6 21,5 19,9 20 11 36 19 WSW 1011,1 50 24 0,0
14.08.2018 14:00:00 21,6 15,8 24,7 25,2 21,3 19,9 18 10 33 18 WSW 1010,8 22 21 0,2
14.08.2018 13:00:00 18,2 15,4 17,4 23,5 21,1 19,9 22 12 41 22 WSW 1011,1 9 2 0,0
14.08.2018 12:00:00 20,8 13,2 20,7 22,8 20,9 19,9 13 7 28 15 WSW 1010,7 59 0 0,0
14.08.2018 11:00:00 21,1 13,0 21,7 23,4 20,6 19,9 13 7 25 13 WSW 1010,5 47 11 0,0
14.08.2018 10:00:00 20,2 12,8 20,9 23,1 20,5 19,9 13 7 25 13 SW 1010,3 30 45 0,0
14.08.2018 09:00:00 19,3 13,2 20,9 19,8 20,5 20,0 13 7 20 11 SSW 1010,1 30 46 0,0
14.08.2018 08:00:00 17,9 13,4 18,0 17,1 20,7 20,0 7 4 13 7 SSW 1009,9 34 55 0,0
14.08.2018 07:00:00 15,4 12,7 13,2 16,2 21,0 20,0 7 4 10 5 SSW 1009,5 21 7 0,0
14.08.2018 06:00:00 15,8 12,9 13,4 16,5 21,3 20,0 4 2 16 8 S 1009,0 21 0 0,0
14.08.2018 05:00:00 16,5 13,0 13,9 16,9 21,6 20,0 8 4 17 9 WSW 1008,5 26 0 0,0
14.08.2018 04:00:00 16,9 13,0 14,7 17,5 21,8 20,0 9 5 17 9 W 1008,5 26 0 0,0
14.08.2018 03:00:00 17,6 12,9 15,7 18,2 22,1 20,0 10 5 19 10 WSW 1008,2 56 0 0,0
14.08.2018 02:00:00 18,3 13,1 16,4 18,8 22,4 20,0 8 4 16 8 W 1008,0 70 0 0,0
14.08.2018 01:00:00 18,3 13,1 16,4 19,0 22,6 20,0 8 4 14 8 WSW 1007,7 70 0 0,0
14.08.2018 00:00:00 19,2 13,2 16,1 19,8 22,9 20,0 7 4 19 10 SW 1007,7 70 0 0,0
13.08.2018 23:00:00 20,6 14,4 18,2 20,9 23,1 20,0 11 6 19 10 SSW 1007,2 70 0 0,0
13.08.2018 22:00:00 21,8 14,6 20,7 22,0 23,3 20,0 9 5 21 12 S 1007,1 70 0 0,0
13.08.2018 21:00:00 22,3 14,5 20,7 22,6 23,4 20,0 11 6 19 11 SSW 1006,7 70 0 0,0
13.08.2018 20:00:00 23,4 14,2 22,0 24,8 23,4 20,0 17 9 28 15 SSW 1006,4 70 37 0,0
13.08.2018 19:00:00 24,5 15,5 26,5 26,0 23,3 20,0 11 6 24 13 SSW 1006,3 70 36 0,0
13.08.2018 18:00:00 23,1 15,5 24,6 24,7 23,4 20,0 7 4 19 11 S 1006,7 70 3 0,0
13.08.2018 17:00:00 22,1 14,9 21,5 24,1 23,4 20,0 11 6 19 10 SSW 1007,7 70 0 0,0
13.08.2018 16:00:00 21,5 15,3 19,9 24,5 23,4 20,1 6 3 25 14 SW 1007,8 22 0 0,2
13.08.2018 15:00:00 24,4 11,9 23,2 26,7 23,1 20,1 14 7 36 19 WSW 1007,8 70 0 0,0
13.08.2018 14:00:00 27,1 9,1 27,6 29,9 22,5 20,1 20 11 40 22 W 1007,1 55 12 0,0
13.08.2018 13:00:00 29,1 7,3 30,3 30,9 21,8 20,1 11 6 20 11 SW 1006,8 70 29 0,0
13.08.2018 12:00:00 29,0 6,5 33,4 30,3 21,2 20,1 10 6 19 11 SSW 1007,1 59 58 0,0
13.08.2018 11:00:00 26,8 8,4 29,9 26,3 20,7 20,1 6 4 13 7 SSE 1007,4 70 50 0,0
13.08.2018 10:00:00 24,1 8,0 27,2 23,7 20,5 20,1 6 3 11 6 SE 1007,6 70 56 0,0
13.08.2018 09:00:00 20,8 8,2 23,0 19,7 20,6 20,1 4 2 8 5 SE 1008,1 65 60 0,0
13.08.2018 08:00:00 17,0 8,8 16,9 16,2 20,8 20,1 3 2 6 4 SE 1008,5 48 60 0,0
13.08.2018 07:00:00 14,2 8,5 11,2 15,5 21,2 20,1 4 2 6 3 S 1008,7 47 26 0,0
13.08.2018 06:00:00 12,3 8,3 9,0 15,4 21,5 20,1 4 2 8 4 SW 1009,0 61 0 0,0
13.08.2018 05:00:00 12,9 9,2 9,3 16,0 21,9 20,1 4 2 7 4 SSE 1009,1 64 0 0,0
13.08.2018 04:00:00 13,5 8,2 9,8 16,6 22,3 20,2 0 0 3 2 N 1009,5 70 0 0,0
13.08.2018 03:00:00 14,5 8,7 10,7 17,4 22,7 20,2 3 2 5 3 S 1010,1 70 0 0,0
13.08.2018 02:00:00 14,8 7,7 11,3 18,1 23,1 20,2 2 1 8 4 W 1010,6 70 0 0,0
13.08.2018 01:00:00 16,0 9,3 12,2 19,0 23,5 20,2 4 2 6 3 ESE 1010,9 70 0 0,0
13.08.2018 00:00:00 16,5 9,0 12,8 20,0 23,9 20,2 0 0 6 3 N 1011,2 70 0 0,0
12.08.2018 23:00:00 19,3 8,4 14,8 21,1 24,3 20,2 5 3 11 6 E 1011,3 70 0 0,0
12.08.2018 22:00:00 20,7 7,4 15,9 22,4 24,6 20,2 5 3 10 5 ENE 1011,6 70 0 0,0
12.08.2018 21:00:00 22,1 6,9 17,4 24,4 24,8 20,2 5 3 9 5 NE 1011,8 70 0 0,0
12.08.2018 20:00:00 25,1 5,3 22,9 26,9 24,9 20,2 6 3 13 7 ENE 1011,9 70 6 0,0
12.08.2018 19:00:00 26,4 5,8 25,7 29,3 24,7 20,2 3 1 14 8 ESE 1012,3 70 37 0,0
12.08.2018 18:00:00 27,2 4,1 29,8 31,9 24,3 20,3 5 3 16 8 SSE 1013,0 70 54 0,0
12.08.2018 17:00:00 27,4 4,0 31,2 33,3 23,6 20,3 5 3 25 14 SSW 1013,7 58 60 0,0
12.08.2018 16:00:00 26,5 3,7 30,4 34,0 22,9 20,3 8 5 21 11 S 1014,5 52 60 0,0
12.08.2018 15:00:00 25,6 4,2 29,7 34,1 22,0 20,3 9 5 23 13 WSW 1015,5 34 60 0,0
12.08.2018 14:00:00 24,4 4,2 30,0 32,9 21,1 20,3 6 3 21 11 SW 1016,1 61 60 0,0
12.08.2018 13:00:00 24,0 4,8 28,4 30,7 20,4 20,3 13 7 26 14 SW 1016,8 61 60 0,0
12.08.2018 12:00:00 23,0 5,9 27,0 27,7 19,8 20,3 7 4 18 10 S 1017,8 56 60 0,0
12.08.2018 11:00:00 21,1 6,2 23,5 23,7 19,4 20,3 9 5 16 9 S 1018,5 55 60 0,0
12.08.2018 10:00:00 19,6 7,2 21,0 20,6 19,2 20,3 7 4 14 8 SSW 1018,8 55 60 0,0
12.08.2018 09:00:00 17,9 7,5 19,0 17,8 19,3 20,3 8 5 16 9 S 1019,1 57 60 0,0
12.08.2018 08:00:00 15,5 7,5 15,5 14,0 19,5 20,3 6 3 10 5 S 1019,4 49 60 0,0
12.08.2018 07:00:00 12,6 7,5 9,6 13,2 19,8 20,3 6 4 12 6 S 1020,0 45 22 0,0
12.08.2018 06:00:00 12,0 7,8 8,3 13,4 20,2 20,4 6 4 10 5 S 1020,3 34 0 0,0
12.08.2018 05:00:00 11,9 8,5 9,6 13,9 20,5 20,4 4 2 8 4 S 1020,6 53 0 0,0
12.08.2018 04:00:00 11,7 8,5 8,4 14,2 20,8 20,4 5 3 8 5 SSW 1020,8 53 0 0,0
12.08.2018 03:00:00 12,3 8,7 8,7 14,7 21,2 20,4 4 2 7 4 SSW 1021,1 70 0 0,0
12.08.2018 02:00:00 12,3 8,7 8,7 15,1 21,6 20,4 4 2 7 4 SW 1021,3 64 0 0,0
12.08.2018 01:00:00 12,1 8,8 9,0 15,9 22,0 20,4 3 2 7 4 W 1021,5 67 0 0,0
12.08.2018 00:00:00 13,4 9,0 9,6 16,7 22,4 20,4 4 2 7 4 WSW 1021,6 70 0 0,0
11.08.2018 23:00:00 13,8 8,7 10,3 17,7 22,8 20,4 3 1 6 4 WSW 1021,7 41 0 0,0
11.08.2018 22:00:00 15,0 8,5 11,2 19,0 23,1 20,4 3 1 11 6 NW 1021,6 70 0 0,0
11.08.2018 21:00:00 17,5 8,0 14,6 20,8 23,3 20,4 5 3 20 11 NNW 1021,1 70 16 0,0
11.08.2018 20:00:00 19,5 7,6 18,9 23,4 23,3 20,4 12 7 27 14 NNW 1020,6 70 56 0,0
11.08.2018 19:00:00 21,8 6,0 22,2 25,4 23,2 20,4 11 6 44 24 W 1020,1 70 43 0,0
11.08.2018 18:00:00 22,2 5,3 23,0 27,8 22,9 20,4 19 11 38 21 W 1019,9 36 57 0,0
11.08.2018 17:00:00 22,6 6,2 25,0 28,1 22,5 20,4 15 8 44 24 W 1019,9 70 52 0,0
11.08.2018 16:00:00 22,0 5,2 24,9 27,8 22,0 20,4 18 10 42 23 W 1020,2 70 36 0,0
11.08.2018 15:00:00 22,1 4,8 24,9 28,6 21,4 20,4 23 12 41 22 W 1020,1 35 56 0,0
11.08.2018 14:00:00 20,8 6,7 21,5 26,8 21,0 20,4 16 9 49 26 WNW 1020,3 62 47 0,0
11.08.2018 13:00:00 20,1 6,5 22,0 23,5 20,6 20,4 22 12 41 22 W 1020,4 67 36 0,0
11.08.2018 12:00:00 20,5 8,5 24,0 23,0 20,5 20,5 16 9 40 21 W 1020,6 32 44 0,0
11.08.2018 11:00:00 16,5 9,9 16,3 18,3 20,4 20,5 16 8 36 19 WSW 1020,6 70 4 0,0
11.08.2018 10:00:00 18,8 7,5 19,8 19,0 20,4 20,5 20 11 46 25 W 1020,3 48 27 0,0
11.08.2018 09:00:00 18,9 7,3 18,8 17,4 20,5 20,5 16 9 34 19 WSW 1019,8 70 11 0,0
11.08.2018 08:00:00 17,7 7,4 16,6 15,8 20,7 20,5 10 5 22 12 SW 1019,4 70 0 0,0
11.08.2018 07:00:00 16,7 7,4 14,7 15,0 20,9 20,5 11 6 18 10 SW 1019,3 70 3 0,0
11.08.2018 06:00:00 16,8 8,0 14,5 15,1 21,2 20,5 10 6 18 10 SSW 1019,1 70 0 0,0
11.08.2018 05:00:00 16,1 8,8 13,2 15,3 21,5 20,5 9 5 14 7 SSW 1019,3 70 0 0,0
11.08.2018 04:00:00 16,6 8,4 14,1 15,8 21,8 20,5 9 5 14 7 SSW 1019,8 70 0 0,0
11.08.2018 03:00:00 16,3 8,0 13,5 15,9 22,1 20,5 9 5 13 7 SSW 1020,1 70 0 0,0
11.08.2018 02:00:00 15,9 8,0 12,7 16,0 22,5 20,5 8 5 13 7 SSW 1020,6 70 0 0,0
11.08.2018 01:00:00 16,2 7,7 11,5 16,4 22,9 20,5 8 5 14 8 SW 1021,1 70 0 0,0
11.08.2018 00:00:00 15,7 9,6 11,2 17,4 23,3 20,5 7 4 10 5 SSW 1021,3 70 0 0,0
10.08.2018 23:00:00 16,7 8,6 12,8 18,3 23,7 20,5 3 2 8 4 SSE 1021,2 70 0 0,0
10.08.2018 22:00:00 17,3 10,1 13,0 19,5 24,0 20,5 3 2 5 3 SE 1021,3 47 0 0,0
10.08.2018 21:00:00 19,3 9,1 15,1 21,3 24,1 20,5 3 1 8 4 ESE 1021,1 70 14 0,0
10.08.2018 20:00:00 22,3 6,8 20,5 23,4 24,2 20,5 4 2 11 6 SE 1020,9 70 28 0,0
10.08.2018 19:00:00 23,5 5,9 24,0 24,7 24,1 20,5 5 3 13 7 WSW 1021,0 70 43 0,0
10.08.2018 18:00:00 22,9 5,5 22,6 25,0 24,0 20,4 10 6 17 9 SW 1021,4 70 26 0,0
10.08.2018 17:00:00 22,6 6,3 23,6 25,5 23,8 20,4 4 2 21 11 NNW 1021,8 70 14 0,0
10.08.2018 16:00:00 23,4 6,7 26,7 27,3 23,5 20,4 11 6 24 13 W 1022,0 65 31 0,0
10.08.2018 15:00:00 22,3 6,0 24,9 26,5 23,2 20,4 16 9 29 16 W 1022,2 44 51 0,0
10.08.2018 14:00:00 22,5 7,9 25,3 26,1 23,0 20,4 15 8 34 18 W 1021,9 44 59 0,0
10.08.2018 13:00:00 21,4 8,3 24,3 24,9 22,8 20,4 16 9 39 21 W 1021,9 25 58 0,0

tt = temperature
td = dewpoint
tt 5cm = temperature 5cm
tt -5cm = temperature -5cm
tt -20cm = temperature -20cm
tt -100cm = temperature -100cm
ff = wind speed
fx = gusts
dd = wind direction
ppp = reduced air pressure
vv = visibility
sd = sunshine duration
rr = precipitation

Next stations